FW9766 Weather Reports


time (UTC)temp
C
wind
direction
speed
KPH
gust
KPH
rain 1hr
cm
rain 24hr
cm
rain mn
cm
humidity
%
barometer
mb
20260507031543 15 309 3.2 11.3 0.00 0.23 0.23 92 1015.5
20260507030041 15 300 4.8 16.1 0.00 0.23 0.23 91 1015.3
20260507024552 15 296 4.8 11.3 0.00 0.23 0.23 91 1015.3
20260507023048 15 313 3.2 9.7 0.00 0.23 0.23 91 1015.1
20260507021600 15 306 3.2 12.9 0.00 0.23 0.23 91 1015.1
20260507020105 15 307 6.4 14.5 0.00 0.23 0.23 90 1014.5
20260507014556 15 285 1.6 11.3 0.00 0.23 0.23 91 1014.8
20260507013050 15 305 3.2 9.7 0.00 0.23 0.23 91 1014.6
20260507011557 15 293 4.8 11.3 0.00 0.23 0.23 90 1014.1
20260507010047 15 286 3.2 11.3 0.00 0.23 0.23 90 1013.8
20260507004545 16 253 4.8 17.7 0.00 0.23 0.23 90 1013.8
20260507003041 16 263 4.8 14.5 0.00 0.23 0.23 90 1013.5
20260507001600 16 277 3.2 12.9 0.00 0.23 0.23 90 1013.8
20260507000106 16 265 1.6 14.5 0.00 0.23 0.23 89 1013.4
20260506234604 16 259 4.8 17.7 0.00 0.23 0.23 89 1013.2
20260506233049 16 285 6.4 16.1 0.00 0.23 0.23 89 1012.9
20260506231545 16 298 8.0 19.3 0.00 0.23 0.23 88 1012.9
20260506224542 17 238 6.4 19.3 0.00 0.23 0.23 87 1013.0
20260506223047 17 267 11.3 22.5 0.00 0.23 0.23 86 1012.8
20260506221555 17 287 6.4 20.9 0.00 0.23 0.23 86 1012.9
20260506220048 18 277 9.7 22.5 0.00 0.23 0.23 84 1012.9
20260506214602 18 268 4.8 22.5 0.00 0.23 0.23 84 1012.8
20260506213048 20 290 11.3 22.5 0.00 0.23 0.23 81 1012.7
20260506211548 21 252 8.0 20.9 0.00 0.23 0.23 80 1012.5
20260506210049 20 257 6.4 19.3 0.00 0.23 0.23 82 1012.8
20260506204547 20 233 6.4 19.3 0.00 0.23 0.23 82 1012.8
20260506203047 21 305 6.4 20.9 0.00 0.23 0.23 80 1012.8
20260506201545 22 200 6.4 22.5 0.00 0.23 0.23 80 1012.8
20260506200044 22 266 9.7 20.9 0.00 0.23 0.23 81 1012.8
20260506194549 22 289 6.4 19.3 0.00 0.23 0.23 82 1012.9
20260506193052 22 261 8.0 20.9 0.00 0.23 0.23 84 1012.8
20260506191548 22 269 8.0 19.3 0.00 0.23 0.23 87 1013.0
20260506190052 22 246 6.4 17.7 0.00 0.23 0.23 89 1013.0
20260506184558 22 259 1.6 12.9 0.00 0.23 0.23 93 1013.1
20260506183041 22 0 0.0 6.4 0.00 0.23 0.23 96 1012.9
20260506181556 21 249 0.0 9.7 0.05 0.23 0.23 97 1013.2
20260506180048 21 259 1.6 6.4 0.05 0.23 0.23 97 1013.1
20260506174545 20 0 0.0 3.2 0.05 0.23 0.23 97 1013.2
20260506173114 20 0 0.0 4.8 0.05 0.23 0.23 97 1013.4
20260506171545 19 336 4.8 12.9 0.00 0.18 0.18 96 1013.1
20260506170106 19 0 1.6 3.2 0.00 0.18 0.18 96 1013.2
20260506164548 18 262 3.2 6.4 0.00 0.18 0.18 96 1013.0
20260506163055 18 246 3.2 9.7 0.03 0.18 0.18 96 1013.1
20260506161547 18 264 3.2 11.3 0.13 0.18 0.18 95 1012.8
20260506160049 19 294 3.2 16.1 0.13 0.18 0.18 96 1012.8
20260506154607 19 329 9.7 19.3 0.13 0.18 0.18 96 1012.7
20260506153041 20 282 9.7 27.4 0.13 0.15 0.15 95 1012.7
20260506151546 22 198 0.0 4.8 0.05 0.05 0.05 98 1012.6
20260506150047 22 0 0.0 0.0 0.05 0.05 0.05 97 1012.1
20260506144553 22 0 0.0 0.0 0.05 0.05 0.05 97 1012.2
20260506143051 22 0 0.0 0.0 0.03 0.03 0.03 98 1012.2
20260506141544 22 0 0.0 0.0 0.00 0.00 0.00 98 1012.0
20260506140051 21 0 0.0 0.0 0.00 0.00 0.00 98 1011.9
20260506134547 21 0 0.0 1.6 0.00 0.00 0.00 97 1011.6
20260506133101 21 67 0.0 6.4 0.00 0.00 0.00 97 1010.7
20260506131547 21 61 1.6 8.0 0.00 0.00 0.00 97 1010.4
20260506130056 21 65 0.0 8.0 0.00 0.00 0.00 97 1010.3
20260506124548 21 57 3.2 9.7 0.00 0.00 0.00 97 1010.2
20260506123043 21 72 3.2 11.3 0.00 0.00 0.00 97 1010.0
20260506121541 21 139 4.8 16.1 0.00 0.00 0.00 97 1010.0
20260506120048 21 36 1.6 6.4 0.00 0.00 0.00 97 1009.9
20260506114550 21 53 1.6 8.0 0.00 0.00 0.00 97 1009.9
20260506113045 21 0 3.2 12.9 0.00 0.00 0.00 97 1010.0
20260506111544 21 65 1.6 9.7 0.00 0.00 0.00 97 1010.2
20260506110045 21 90 0.0 12.9 0.00 0.00 0.00 97 1010.3
20260506104606 21 68 1.6 14.5 0.00 0.00 0.00 97 1010.0
20260506103047 21 91 6.4 17.7 0.00 0.00 0.00 97 1010.1
20260506101549 21 47 4.8 14.5 0.00 0.00 0.00 97 1010.2
20260506100046 22 82 3.2 17.7 0.00 0.00 0.00 96 1010.0
20260506094544 22 98 3.2 12.9 0.00 0.00 0.00 96 1010.0
20260506093041 22 68 3.2 12.9 0.00 0.00 0.00 96 1010.0
20260506091541 22 85 4.8 14.5 0.00 0.00 0.00 96 1009.9
20260506090049 22 87 4.8 20.9 0.00 0.00 0.00 96 1009.8
20260506084547 22 99 6.4 17.7 0.00 0.00 0.00 95 1009.6
20260506083048 22 31 4.8 17.7 0.00 0.00 0.00 95 1009.5
20260506081545 22 60 4.8 16.1 0.00 0.00 0.00 95 1009.5
20260506073050 22 79 9.7 20.9 0.00 0.00 0.00 93 1009.7
20260506071547 22 97 9.7 25.7 0.00 0.00 0.00 93 1009.9
20260506061547 23 119 4.8 16.1 0.00 0.00 0.00 93 1010.3
20260506044603 21 0 0.0 0.0 0.00 0.00 0.00 91 1010.3
20260506043055 21 0 0.0 0.0 0.00 0.00 0.00 90 1010.2
20260506041548 22 0 0.0 0.0 0.00 0.00 0.00 89 1010.1
20260506040051 22 0 0.0 0.0 0.00 0.00 0.00 89 1009.9
20260506034544 22 0 0.0 0.0 0.00 0.00 0.00 88 1009.7
20260506033048 23 0 0.0 0.0 0.00 0.00 0.00 87 1009.6